STARLINK-35406

Last updated on Mon Oct 20 2025 00:02:07 GMT+0000 (Coordinated Universal Time)

1 65795U 25218E 25292.26604814 .00062560 00000+0 11419-2 0 9997 2 65795 97.6023 152.8351 0001689 96.8446 263.2996 15.49211988 3645
UTC large
Height (km)
Speed (km/s)
/
Latitude / Longitude
Inclination (degrees)
Orbital Period (minutes)
Azimuth
Elevation
Range (km)
Doppler Factor

Next 0 passes for location: London (51.5072 / 0.1276)

Sorry there are no passes over London.